Theta_e
298 299 300 299 300 300 300 300 301 301 303 303 300 305 305 306 307 309 310 311 313 314 314 316 317 320 318 311 312 320 317 316 320 321 318 316 318 319 321 324 324 322 322 321
298 297 298 299 300 299 299 299 300 301 303 304 304 303 304 305 306 307 308 310 311 311 313 315 314 314 314 312 312 315 314 317 320 319 316 316 317 315 314 311 312 318 322 320
297 297 297 297 296 299 298 298 301 300 301 301 303 304 305 306 304 305 305 305 304 308 312 312 313 314 312 311 312 309 310 311 313 317 314 311 314 315 314 313 313 313 315 313
293 296 297 297 296 298 298 297 299 300 302 301 302 301 302 302 303 304 305 306 306 308 309 311 313 313 313 310 310 309 310 310 310 310 309 309 310 312 313 311 310 310 309 309
293 294 296 297 297 298 298 298 299 299 299 299 301 299 299 300 299 301 302 303 304 301 304 308 309 308 311 312 310 309 308 309 308 308 308 309 309 308 308 309 308 309 309 309
295 293 295 296 297 297 298 298 298 297 298 298 298 296 297 300 299 299 300 301 300 300 303 304 303 302 302 304 307 310 310 308 309 309 309 309 310 308 308 308 308 308 309 307
294 295 293 296 297 296 297 297 297 296 295 295 295 296 297 297 298 298 299 300 300 301 302 303 304 302 304 304 305 305 308 309 308 309 308 308 306 307 308 308 308 307 307 306
294 295 294 296 297 297 297 296 296 296 292 295 296 296 297 297 298 299 301 298 299 300 301 304 305 306 306 306 305 306 306 308 310 307 308 306 305 304 305 306 306 306 306 306
293 295 294 296 297 297 297 296 296 295 294 294 296 297 297 299 299 300 298 297 298 299 301 304 303 305 307 307 306 305 307 307 308 307 308 307 303 307 306 304 305 306 306 306
294 295 294 296 297 297 296 296 295 295 294 295 296 298 297 298 298 298 298 299 300 300 300 301 303 304 301 306 307 308 306 308 308 308 306 305 305 306 307 304 303 306 307 306
294 295 294 296 297 297 297 295 294 294 294 294 295 295 295 296 297 293 295 295 298 296 296 298 300 300 300 301 301 305 307 307 307 308 307 307 306 307 306 304 305 305 304 306
294 295 294 296 297 297 297 296 293 293 295 295 296 295 295 296 297 297 297 297 298 298 293 294 297 299 299 299 298 302 306 304 304 306 305 304 304 304 305 305 306 305 305 305
295 294 294 297 297 297 296 296 294 295 295 295 295 294 295 295 296 297 296 296 296 297 298 294 296 298 296 297 299 299 302 302 302 302 303 303 304 303 303 303 304 305 305 304
295 294 294 297 297 296 296 296 294 294 295 293 295 296 296 297 297 295 296 296 296 296 295 293 292 296 296 296 296 298 298 299 300 301 300 302 303 301 302 304 305 305 306 305
295 294 294 296 296 296 296 296 295 295 295 295 295 296 296 297 297 296 297 297 296 296 292 288 292 294 294 293 294 295 296 297 297 297 299 301 300 301 303 304 305 304 304 304
295 293 294 296 296 296 296 295 295 294 295 295 292 295 296 297 297 297 296 297 297 296 295 291 294 295 295 293 295 294 295 295 295 295 297 297 297 301 300 302 303 304 304 302
294 293 294 295 294 295 295 295 295 295 295 295 290 291 295 296 295 296 296 296 296 295 295 292 293 294 296 292 295 294 295 295 296 296 296 296 296 297 298 300 300 301 301 301
293 293 293 294 295 295 294 294 295 295 294 295 289 292 293 295 295 294 295 295 295 295 295 293 292 293 293 296 294 295 295 295 295 295 295 296 296 297 298 301 298 300 301 301
294 294 294 294 293 293 294 294 295 294 295 293 291 292 290 295 295 295 295 295 287 294 291 292 294 294 296 295 295 295 295 295 295 296 296 297 298 299 298 299 299 302 302 302
294 294 294 293 293 293 294 294 294 294 295 293 289 292 289 293 292 286 288 290 290 291 293 294 293 295 295 295 295 295 295 296 295 296 296 297 299 300 300 300 301 302 302 300
294 293 292 293 293 293 292 291 289 289 289 293 293 293 288 293 288 288 291 287 290 295 296 296 298 297 297 298 298 296 295 295 295 297 299 299 300 302 302 302 302 301 299 298
294 293 292 293 293 292 289 284 290 290 293 292 291 293 293 294 293 289 290 293 293 295 295 296 298 299 298 299 299 300 301 296 295 296 297 297 301 302 302 301 299 297 297 296
294 294 293 292 291 287 285 284 290 286 291 293 295 292 294 294 295 294 294 294 294 295 295 296 298 300 298 297 296 299 301 298 295 297 299 299 300 300 298 297 296 296 297 297
294 291 285 285 282 287 289 292 292 293 293 295 295 294 294 295 294 294 295 294 295 298 299 300 297 297 296 296 296 296 296 296 299 298 298 299 298 296 296 296 297 296 296 295
294 292 286 287 290 291 293 293 294 295 296 295 295 295 295 294 295 295 295 296 299 300 297 294 297 296 296 297 297 297 297 298 300 300 300 299 296 295 296 296 296 296 295 293
294 293 290 291 288 287 294 294 294 296 296 295 295 295 296 294 294 296 295 300 301 298 295 297 296 296 296 296 297 299 299 300 300 300 298 297 296 296 296 295 295 295 293 292
293 290 293 293 293 293 295 296 296 296 295 295 296 297 298 297 297 300 299 299 298 297 295 296 297 297 297 297 297 296 296 296 296 296 296 296 295 293 294 294 293 293 293 291
Wind_Speed
25 26 23 22 21 13 15 11 3 5 14 5 3 3 3 2 10 15 9 7 10 11 6 5 4 4 2 6 3 7 3 3 4 15 5 7 4 5 3 5 6 3 2 4
26 23 22 20 18 17 14 5 4 8 18 4 6 2 3 4 4 7 4 4 11 13 16 10 18 19 10 8 3 5 6 4 7 4 5 4 3 3 4 4 2 4 1 3
27 24 22 20 18 15 12 4 2 7 15 8 3 5 3 3 4 4 7 5 7 6 12 18 10 14 4 10 7 11 6 2 6 11 2 2 2 6 11 5 3 4 4 1
29 27 26 22 20 18 17 9 4 5 3 6 7 5 2 7 7 2 7 4 10 10 5 6 18 21 10 11 13 9 8 6 4 5 4 4 4 8 14 7 5 4 2 8
28 27 26 24 22 20 21 6 4 4 1 2 5 2 4 5 8 2 6 5 11 14 12 9 7 7 5 5 13 10 7 4 6 4 10 11 7 10 8 9 9 10 10 19
29 27 25 25 24 24 14 15 6 3 1 2 3 4 5 3 3 6 10 4 8 13 13 15 9 8 11 2 2 7 8 5 6 4 6 9 5 15 13 5 8 12 11 15
27 25 26 25 27 27 26 14 11 5 2 3 4 3 5 7 8 8 9 10 11 7 12 19 16 18 12 8 7 6 1 6 4 3 5 4 5 1 8 11 9 11 10 10
24 27 27 26 26 28 27 18 10 7 2 2 4 5 3 9 15 5 4 4 7 12 5 4 4 3 3 9 13 14 12 4 3 4 7 1 4 4 6 7 6 7 8 6
21 27 26 27 28 26 27 23 13 5 3 3 4 2 4 4 3 5 5 10 8 6 2 4 5 3 1 3 3 14 12 9 5 5 6 6 2 2 4 5 4 4 3 4
18 26 25 26 26 27 27 25 23 9 4 6 5 0 3 4 2 3 2 3 3 5 2 2 2 2 3 3 1 3 5 5 10 2 2 2 3 3 2 4 5 4 7 7
16 27 25 22 25 24 24 23 18 17 6 6 8 10 8 6 4 0 4 2 2 2 2 1 2 2 2 3 3 4 2 4 2 3 3 4 3 3 5 1 2 4 6 8
16 26 25 21 26 24 25 22 16 18 7 4 6 11 14 13 9 7 5 1 2 2 2 1 1 1 2 2 2 1 2 2 1 3 2 1 7 6 11 10 5 6 8 7
21 25 24 22 25 28 20 19 20 15 8 14 18 18 12 14 20 12 4 2 3 2 3 0 1 1 1 1 3 3 1 1 2 3 3 2 3 6 9 10 10 10 9 4
26 22 23 18 21 22 14 17 21 18 4 1 6 6 8 5 10 18 16 11 4 3 2 1 1 1 1 2 3 0 3 4 2 3 5 3 7 7 14 9 9 13 12 12
26 20 21 15 20 19 13 13 19 18 7 2 7 16 9 8 8 9 12 11 9 3 1 1 2 2 1 2 2 6 3 5 3 4 4 1 10 9 14 2 3 6 11 17
21 19 20 16 20 20 17 5 14 23 16 2 3 5 7 9 11 12 12 15 11 6 4 3 4 5 3 2 3 4 9 16 20 6 14 13 15 12 8 3 6 18 28 23
20 19 21 18 11 9 4 2 3 19 17 3 3 4 3 4 10 15 16 15 12 8 4 4 5 7 10 2 10 7 14 20 24 25 21 20 19 13 16 18 15 11 10 8
22 20 19 17 12 11 6 7 6 13 8 2 0 3 5 0 2 4 7 7 10 8 9 4 3 2 5 6 12 16 26 31 32 30 26 25 25 19 19 17 20 9 15 13
23 21 20 14 6 3 4 5 13 14 2 3 2 2 3 5 2 1 2 2 1 4 3 3 6 3 6 13 12 21 23 17 21 19 17 18 17 17 18 21 19 23 17 13
24 20 4 4 4 11 9 5 2 3 2 2 1 2 2 3 3 2 1 2 2 2 4 2 3 7 25 24 27 28 27 24 23 18 17 16 11 15 16 19 24 23 15 10
3 3 4 12 11 5 2 1 2 1 2 3 5 6 2 3 2 3 4 2 2 3 4 3 3 6 5 10 19 28 31 29 28 15 9 12 12 11 23 22 18 15 10 6
2 9 12 4 1 1 3 1 2 2 2 3 2 3 6 2 2 1 3 2 1 5 1 2 3 3 17 21 22 19 15 22 28 21 12 16 10 17 17 16 13 9 5 2
4 2 3 1 1 4 3 2 3 2 2 3 1 1 1 2 4 2 1 3 4 3 2 3 2 12 21 21 18 6 11 15 22 19 12 7 13 15 10 9 9 5 3 4
1 2 2 3 3 3 4 3 3 4 5 8 6 2 2 4 2 2 2 4 2 3 3 4 4 14 25 25 14 16 21 23 23 15 11 12 7 7 9 7 4 3 3 4
2 2 2 4 6 6 5 8 6 12 12 13 3 5 7 3 3 2 3 3 4 2 2 2 9 11 12 23 19 18 19 18 14 14 11 7 10 9 6 5 3 2 1 3
3 4 0 4 2 3 3 8 9 6 8 6 4 2 2 4 2 3 5 3 2 2 0 6 11 17 20 18 14 13 13 15 14 11 6 7 7 5 4 1 1 1 1 3
3 4 8 10 8 8 7 6 8 6 4 2 1 3 4 2 3 3 1 4 4 6 12 15 14 12 13 13 14 7 4 3 4 4 4 4 2 2 4 2 2 2 4 7
Wind_Direction
268 266 267 259 241 262 245 241 234 220 187 191 224 230 218 318 300 295 267 255 242 227 209 237 286 247 260 360 297 164 215 122 279 253 95 66 79 130 166 233 186 229 186 216
263 265 273 266 245 234 241 240 234 198 196 228 210 241 277 252 245 249 281 263 232 238 244 247 244 234 190 173 263 169 149 203 250 232 291 350 125 178 136 142 279 170 320 331
256 258 255 255 257 233 237 235 218 205 216 238 247 263 273 240 235 264 268 278 319 307 248 237 250 251 169 189 173 151 120 204 220 233 330 21 214 179 179 153 159 156 201 233
247 249 247 242 242 240 214 207 222 200 195 229 240 224 258 272 274 277 290 243 236 264 271 303 243 236 173 182 173 160 162 199 197 163 188 244 244 215 192 190 158 163 143 276
247 240 244 236 230 222 218 197 188 215 179 131 189 207 207 237 269 192 291 288 305 334 303 263 305 320 226 177 182 170 192 204 180 236 205 196 218 231 227 232 222 241 254 270
235 236 235 230 225 210 204 217 212 141 3 129 145 218 219 227 114 232 227 264 306 295 278 289 260 267 279 241 92 174 174 166 151 241 182 166 233 237 212 190 192 199 214 239
247 233 227 225 220 214 214 200 187 161 229 190 202 215 224 231 229 237 280 273 240 257 292 300 257 240 230 245 232 204 237 187 165 157 123 213 229 95 203 204 222 221 231 247
237 224 220 220 212 211 215 189 182 166 180 203 280 262 260 279 262 237 288 267 289 282 302 269 282 199 220 229 227 205 198 186 182 167 198 327 273 208 181 181 239 185 208 224
234 215 216 214 219 203 208 193 183 151 123 216 136 317 252 277 167 166 209 277 261 349 263 224 206 209 313 226 257 200 203 215 202 170 195 201 196 316 86 83 297 205 161 221
233 209 210 216 213 197 204 208 209 201 176 255 246 137 325 322 316 247 223 267 272 229 335 325 311 166 301 260 274 140 197 204 223 201 142 325 245 250 85 134 237 143 194 224
234 199 202 212 206 198 202 203 207 199 199 242 249 269 246 277 258 272 304 16 310 26 41 293 330 355 342 305 334 308 287 185 181 199 153 197 218 227 165 63 94 164 194 231
225 193 196 209 200 186 197 201 196 200 224 264 254 266 273 254 260 304 316 276 327 226 73 290 250 4 333 0 295 37 279 12 355 341 32 41 340 315 313 333 290 232 230 217
195 186 192 204 184 184 196 187 180 183 234 275 270 274 295 254 243 248 265 313 331 21 14 194 360 329 87 313 272 343 12 40 339 345 177 281 320 286 287 275 268 278 277 236
171 178 185 194 176 173 182 195 185 191 172 228 280 306 275 266 243 233 237 266 246 295 313 108 157 221 159 263 278 302 222 356 350 283 268 216 199 348 345 320 253 250 253 270
166 170 176 179 170 176 189 201 194 192 205 232 286 312 263 249 235 225 227 238 249 245 354 74 240 257 32 276 341 257 201 222 192 225 268 104 313 336 357 277 148 241 285 296
156 161 163 166 169 179 177 160 211 205 209 303 322 305 273 234 235 233 234 238 242 224 187 220 248 231 168 229 241 244 228 254 260 267 282 302 307 301 308 114 120 263 278 280
148 149 158 162 161 163 116 116 247 196 197 219 308 313 275 279 249 235 232 233 234 236 225 224 213 216 197 214 254 239 267 279 277 277 284 290 285 264 280 276 272 282 240 179
141 142 148 148 147 123 81 38 103 173 172 191 45 276 319 42 227 211 211 218 232 222 226 229 207 217 197 240 233 238 239 246 252 261 261 260 275 272 265 262 290 191 154 155
137 136 134 121 116 108 88 55 150 179 165 167 206 209 255 354 34 334 185 231 355 241 225 232 184 202 224 231 217 220 225 220 238 256 261 275 265 261 266 264 263 190 158 162
130 126 107 79 114 126 127 130 177 196 228 233 229 236 289 343 4 326 346 12 233 294 244 194 218 244 248 260 249 244 236 235 255 250 261 277 286 267 222 213 188 176 169 176
121 81 72 135 139 146 156 99 111 234 322 217 239 221 218 245 113 231 215 228 238 262 256 211 243 265 259 289 281 265 246 237 236 248 245 298 298 196 164 159 158 160 169 176
70 120 116 128 80 48 82 290 301 205 246 217 197 239 217 327 307 127 218 239 314 253 339 256 264 332 329 303 289 270 258 228 218 224 270 296 245 193 167 158 153 154 160 192
51 75 85 128 10 43 117 249 292 318 235 228 192 297 234 263 244 222 249 245 239 324 256 251 312 324 329 337 334 292 208 193 185 184 165 117 139 149 172 164 148 159 207 260
301 152 42 143 287 245 197 206 195 249 248 243 221 214 196 238 241 218 247 245 292 273 291 50 311 339 351 12 50 104 128 143 149 150 197 186 140 169 171 160 155 210 270 309
255 166 230 209 227 252 251 260 270 288 280 256 216 225 202 210 242 216 252 258 239 256 65 286 328 0 14 30 67 101 126 142 125 133 145 143 187 184 181 189 219 263 289 344
238 232 22 214 80 293 265 264 265 297 279 266 228 268 229 218 206 208 218 262 334 70 33 344 18 29 32 39 56 88 125 147 162 192 198 175 189 217 228 274 324 286 326 310
239 255 239 252 274 249 267 276 284 272 317 259 191 248 219 229 220 197 47 0 15 34 39 44 37 31 24 26 38 56 75 116 146 156 167 179 179 124 120 87 19 309 300 310